Terminal Aerodrome Forecast
Issued by NWS Jackson, MS

Home | Current Version | Previous Version | Text Only | Print | Product List | Glossary On
Versions: 1 2 3 4 5 6 7 8 9 10 11 12 13 14
000
FTUS44 KJAN 282300
TAFHBG
TAF
KHBG 282320Z 2900/2924 28012G16KT P6SM FEW045 SCT050 SCT100
     FM290200 31003KT P6SM SKC
     FM291000 32004KT 4SM BR SKC
     FM291300 35005KT P6SM SKC=

USA.gov is the U.S. government's official web portal to all federal, state and local government web resources and services.